Meteo Giornale » Osservazioni meteo Slovacchia » Bratislava Ivanka

ore: 01:30 - Osservazioni Meteo Bratislava Ivanka
Lat. 48° 12' N Lon. 17° 12' E Alt. 133 metri s.l.m.

sereno Europe/Bratislava

14 °C

Sereno

Temp. 24 Ore

11 °C

20 °C

Sud-Ovest

14.8 Km/h

Dew point 9 °C

Umidità 71 %

Visibilità  10 Km

Il sole sorge alle ore 06:39

Il sole tramonta alle ore 18:46

Data e Ora Cielo e Fenomeni T °C DP °C Um. % Pres. hPa Vis. km Vento km/h
Oggi h: 01:30 sereno Sereno 14 9 71 1014 10 SO 14.8
Oggi h: 01:00 sereno Sereno 14 9 71 1014 10 SO 16.7
Ieri h: 23:30 sereno Sereno 15 9 67 1014 10 SO 13
Ieri h: 23:00 sereno Sereno 14 9 71 1014 10 SO 13
Ieri h: 22:30 sereno Sereno 14 9 71 1015 10 SO 13
Ieri h: 22:00 sereno Sereno 15 9 67 1015 10 SO 14.8
Ieri h: 21:30 sereno Sereno 16 9 63 1015 10 SO 13
Ieri h: 20:30 sereno Sereno 16 9 63 1016 10 S 11.1
Ieri h: 20:00 sereno Sereno 16 10 67 1016 10 S 13
Ieri h: 19:30 sereno Sereno 15 10 72 1016 10 S 11.1
Ieri h: 19:00 sereno Sereno 17 10 63 1017 10 S/SE 9.3
Ieri h: 18:30 sereno Sereno 17 11 67 1017 10 S 11.1
Ieri h: 18:00 sereno Sereno 19 10 55 1017 10 S/SO 11.1
Ieri h: 17:30 sereno Sereno 19 10 55 1017 10 S/SO 16.7
Ieri h: 16:30 poco_nuvoloso Poco Nuvoloso 19 11 59 1018 10 S/SO 13
Ieri h: 16:00 poco_nuvoloso Poco Nuvoloso 20 10 52 1018 10 SO 13
Ieri h: 15:30 poco_nuvoloso Poco Nuvoloso 20 10 52 1019 10 O/SO 13
Ieri h: 15:00 poco_nuvoloso Poco Nuvoloso 19 10 55 1019 10 O/SO 13
Ieri h: 14:30 poco_nuvoloso Poco Nuvoloso 19 10 55 1020 10 O/SO 13
Ieri h: 14:00 poco_nuvoloso Poco Nuvoloso 19 10 55 1020 10 O/SO 14.8
Ieri h: 13:30 nuvoloso Nuvoloso 19 10 55 1021 10 O/SO 7.4
Ieri h: 13:00 nuvoloso Nuvoloso 18 11 63 1021 10 S/SO 9.3
Ieri h: 12:30 poco_nuvoloso Poco Nuvoloso 17 10 63 1022 10 SO 13
Ieri h: 12:00 poco_nuvoloso Poco Nuvoloso 16 10 67 1022 10 O/NO 11.1
Ieri h: 11:30 poco_nuvoloso Poco Nuvoloso 16 10 67 1022 10 O 16.7
Ieri h: 11:00 poco_nuvoloso Poco Nuvoloso 16 10 67 1022 10 O 16.7
Ieri h: 10:30 poco_nuvoloso Poco Nuvoloso 15 9 67 1023 10 O 14.8
Ieri h: 10:00 poco_nuvoloso Poco Nuvoloso 13 9 76 1023 10 O/NO 14.8
Ieri h: 09:30 sereno Sereno 13 9 76 1023 10 O 14.8
Ieri h: 09:00 sereno Sereno 12 8 76 1023 10 O/NO 13
Ieri h: 08:30 sereno Sereno 12 8 76 1023 10 NO 9.3
Ieri h: 08:00 molto_nuvoloso Molto Nuvoloso 11 8 81 1023 10 O 11.1
Ieri h: 07:30 poco_nuvoloso Poco Nuvoloso 11 8 81 1023 10 N 5.5
Ieri h: 07:00 nuvoloso Nuvoloso 11 7 76 1023 10 O 9.3
Ieri h: 05:30 poco_nuvoloso Poco Nuvoloso 11 9 87 1023 10 O 14.8
Ieri h: 05:00 poco_nuvoloso Poco Nuvoloso 11 9 87 1023 10 O 14.8
Ieri h: 04:30 poco_nuvoloso Poco Nuvoloso 11 9 87 1023 10 O 11.1
Ieri h: 04:00 poco_nuvoloso Poco Nuvoloso 11 9 87 1024 10 O 9.3
Ieri h: 03:00 poco_nuvoloso Poco Nuvoloso 12 10 87 1024 10 O/NO 9.3
Ieri h: 02:30 poco_nuvoloso Poco Nuvoloso 12 10 87 1024 10 O 11.1
Ieri h: 02:00 poco_nuvoloso Poco Nuvoloso 12 10 87 1024 10 N 5.5